Location: Easter Hill Village
(37.9235°N, 122.3444°W)
Time: 07:29:02
(UTC+00:00)

Hubble Space Telescope - Pass Details

Date: 16 September 2019
Orbit: 536 x 540 km, 28.5° (Epoch: 20 October)

Event Time Altitude Azimuth Distance (km) Brightness Sun altitude
Exits shadow 13:11:53 - 235° (SW) 1,862 3.0 -8.7°
Reaches altitude 10° 13:12:09 10° 233° (SW) 1,780 2.9 -8.6°
Maximum altitude 13:15:20 22° 182° (S) 1,208 2.5 -8.0°
Drops below altitude 10° 13:18:31 10° 131° (SE) 1,781 4.0 -7.4°
Sets 13:21:09 0° 116° (ESE) 2,672 5.4 -6.9°
